{"data":{"norad_id":46045,"epoch":"2026-05-25T03:27:09.816768Z","epoch_age_seconds":59039,"freshness":"FRESH","line1":"1 46045U 20055U   26145.14386362 -.00000151  00000+0  70221-5 0  9996","line2":"2 46045  53.1582 131.5808 0001307  97.5809 262.5340 15.30193850320574","mean_motion":15.3019385,"eccentricity":0.0001307,"inclination_deg":53.1582,"raan_deg":131.5808,"arg_perigee_deg":97.5809,"mean_anomaly_deg":262.534,"bstar":7.0221e-6,"rev_number":32057,"period_min":94.105723925109,"perigee_km":474.33769675678,"apogee_km":476.12916778778,"semimajor_km":6853.3704322723,"source":"CELESTRAK","updated_at":"2026-05-25T13:38:16.460442Z"}}